N64414 KPBI-KPBI

Flight info

Callsign N64414
Flight time 0h 8m
Altitude VFR
Route
Aircraft C172/L-DOV/C

Departure

Time 2026-04-25 00:06
Airport Palm Beach International Airport (KPBI)

Arrival

Time 2026-04-25 00:15
Airport Palm Beach International Airport (KPBI)
Time Latitude Longitude Altitude Speed Heading
2026-04-24 23:59 26.67967 -80.09835 19 ft 0 kts 89°
2026-04-25 00:00 26.67967 -80.09828 19 ft 4 kts 91°
2026-04-25 00:00 26.67970 -80.09764 18 ft 12 kts 82°
2026-04-25 00:00 26.67998 -80.09665 18 ft 15 kts 36°
2026-04-25 00:01 26.68038 -80.09708 18 ft 10 kts 272°
2026-04-25 00:01 26.68040 -80.09784 19 ft 10 kts 272°
2026-04-25 00:01 26.68046 -80.09860 19 ft 11 kts 274°
2026-04-25 00:01 26.68049 -80.09956 19 ft 14 kts 272°
2026-04-25 00:02 26.68054 -80.10072 19 ft 15 kts 274°
2026-04-25 00:02 26.68058 -80.10187 19 ft 15 kts 274°
2026-04-25 00:02 26.68064 -80.10299 20 ft 14 kts 272°
2026-04-25 00:02 26.68068 -80.10406 20 ft 13 kts 271°
2026-04-25 00:03 26.68073 -80.10505 20 ft 12 kts 272°
2026-04-25 00:03 26.68077 -80.10566 20 ft 0 kts 294°
2026-04-25 00:05 26.68077 -80.10567 20 ft 1 kts 294°
2026-04-25 00:05 26.68111 -80.10572 19 ft 13 kts 57°
2026-04-25 00:05 26.68107 -80.10353 21 ft 48 kts 92°
2026-04-25 00:05 26.68087 -80.09853 55 ft 74 kts 94°
2026-04-25 00:06 26.68054 -80.09270 252 ft 73 kts 96°
2026-04-25 00:06 26.67985 -80.08694 449 ft 74 kts 101°
2026-04-25 00:06 26.67815 -80.08159 615 ft 80 kts 136°
2026-04-25 00:06 26.67240 -80.08084 799 ft 92 kts 198°
2026-04-25 00:07 26.66847 -80.08671 957 ft 105 kts 253°
2026-04-25 00:07 26.66807 -80.09536 984 ft 115 kts 265°
2026-04-25 00:07 26.66835 -80.10419 1024 ft 114 kts 273°
2026-04-25 00:07 26.67116 -80.11189 842 ft 105 kts 317°
2026-04-25 00:08 26.67727 -80.11386 615 ft 95 kts 25°
2026-04-25 00:08 26.68103 -80.10933 267 ft 75 kts 111°
2026-04-25 00:08 26.68110 -80.10415 25 ft 53 kts 97°
2026-04-25 00:08 26.68093 -80.10045 20 ft 59 kts 93°
2026-04-25 00:09 26.68062 -80.09517 111 ft 73 kts 96°
2026-04-25 00:09 26.68003 -80.08943 299 ft 74 kts 97°
2026-04-25 00:09 26.67933 -80.08355 464 ft 78 kts 107°
2026-04-25 00:09 26.67515 -80.08023 677 ft 85 kts 172°
2026-04-25 00:10 26.66914 -80.08190 810 ft 97 kts 214°
2026-04-25 00:10 26.66632 -80.08914 952 ft 111 kts 263°
2026-04-25 00:10 26.66610 -80.09796 994 ft 113 kts 269°
2026-04-25 00:10 26.66652 -80.10645 1048 ft 105 kts 274°
2026-04-25 00:11 26.66830 -80.11400 952 ft 100 kts 304°
2026-04-25 00:11 26.67162 -80.11752 793 ft 97 kts 343°
2026-04-25 00:11 26.67912 -80.11529 555 ft 73 kts 60°
2026-04-25 00:11 26.68092 -80.11006 219 ft 73 kts 84°
2026-04-25 00:12 26.68112 -80.10511 26 ft 51 kts 96°
2026-04-25 00:12 26.68098 -80.10166 20 ft 55 kts 92°
2026-04-25 00:12 26.68076 -80.09646 77 ft 75 kts 93°
2026-04-25 00:12 26.68069 -80.09073 287 ft 72 kts 90°
2026-04-25 00:13 26.68033 -80.08497 458 ft 77 kts 109°
2026-04-25 00:13 26.67585 -80.08196 650 ft 88 kts 176°
2026-04-25 00:13 26.67061 -80.08576 785 ft 106 kts 248°
2026-04-25 00:13 26.66916 -80.09381 816 ft 106 kts 259°
2026-04-25 00:14 26.66845 -80.10201 994 ft 105 kts 260°
2026-04-25 00:14 26.66834 -80.10989 976 ft 97 kts 265°
2026-04-25 00:14 26.67041 -80.11694 775 ft 103 kts 320°
2026-04-25 00:14 26.67655 -80.11790 601 ft 91 kts 36°
2026-04-25 00:15 26.68105 -80.11302 359 ft 90 kts 81°
2026-04-25 00:15 26.68118 -80.10726 87 ft 66 kts 94°
2026-04-25 00:15 26.68105 -80.10327 21 ft 31 kts 91°
2026-04-25 00:15 26.68100 -80.10197 20 ft 11 kts 107°
2026-04-25 00:16 26.68097 -80.10128 20 ft 9 kts 94°
2026-04-25 00:16 26.68091 -80.10020 20 ft 19 kts 93°
2026-04-25 00:16 26.68036 -80.09924 19 ft 14 kts 187°
2026-04-25 00:16 26.67958 -80.09939 19 ft 8 kts 181°